Location: *
(40.7765°S, 106.5327°E)
Time: 16:10:23
(UTC+00:00)

ARGOS - Pass Details

Date: 26 May 2022
Orbit: 821 x 834 km, 98.4° (Epoch: 04 July)

Event Time Altitude Azimuth Distance (km) Brightness Sun altitude
Exits shadow 11:31:57 29° 149° (SSE) 1,501 4.1 -21.2°
Maximum altitude 11:34:42 61° 79° (E) 945 3.1 -21.7°
Drops below altitude 10° 11:40:01 10° 359° (N) 2,424 5.7 -22.7°
Sets 11:42:23 0° 355° (N) 3,347 6.5 -23.1°
